Precipitable_Water
0.48 0.54 0.60 0.41 0.22 0.25 0.23 0.24 0.30 0.29 0.34 0.43 0.49 0.48 0.51 0.64 0.58 0.50 1.30 1.43 1.62 1.64 1.65 1.56 1.49 1.45 1.49 1.59 1.58 1.44 1.41 1.34 1.14 1.15 1.11 1.04 0.96 0.92 0.92 0.83 0.85 0.90 0.92 0.97 1.00 1.01 1.01 0.99 0.93
0.46 0.50 0.47 0.38 0.24 0.20 0.22 0.29 0.28 0.33 0.48 0.54 0.59 0.60 0.58 0.58 0.86 1.00 1.14 1.45 1.62 1.64 1.49 1.44 1.43 1.41 1.32 1.57 1.69 1.55 1.50 1.26 1.15 1.14 1.09 1.04 0.98 0.93 0.89 0.86 0.89 0.94 0.97 0.98 0.98 0.96 0.98 0.98 0.95
0.43 0.49 0.36 0.33 0.26 0.20 0.22 0.29 0.31 0.40 0.55 0.53 0.56 0.77 0.66 0.60 0.87 1.03 1.30 1.44 1.54 1.63 1.60 1.55 1.50 1.37 1.27 1.37 1.61 1.58 1.50 1.26 1.18 1.21 1.16 1.07 0.98 0.94 0.89 0.91 0.97 1.00 1.01 0.99 0.96 0.94 0.95 0.97 0.89
0.46 0.40 0.40 0.29 0.24 0.27 0.27 0.30 0.33 0.39 0.49 0.58 0.62 0.55 0.81 0.96 0.91 1.07 1.30 1.42 1.39 1.39 1.52 1.48 1.40 1.29 1.44 1.59 1.67 1.62 1.49 1.21 1.17 1.18 1.09 1.04 0.97 0.93 0.90 0.90 0.95 1.00 0.99 0.98 0.90 0.90 0.97 0.95 0.91
0.52 0.40 0.27 0.25 0.26 0.29 0.31 0.36 0.40 0.43 0.50 0.54 0.58 0.50 0.63 0.93 1.05 1.17 1.26 1.31 1.32 1.36 1.43 1.54 1.48 1.56 1.63 1.65 1.61 1.58 1.50 1.11 1.14 1.19 1.09 1.04 0.98 0.93 0.89 0.93 0.98 1.00 1.01 0.93 0.94 0.97 1.00 1.00 0.91
0.30 0.34 0.23 0.22 0.25 0.30 0.34 0.41 0.46 0.50 0.57 0.58 0.55 0.53 0.60 0.89 0.94 1.09 1.18 1.22 1.20 1.24 1.45 1.56 1.65 1.65 1.68 1.74 1.78 1.69 1.51 1.18 1.17 1.26 1.15 1.07 1.01 0.94 0.94 0.95 0.98 1.00 0.98 0.92 0.93 1.01 1.04 1.02 0.92
0.32 0.25 0.23 0.26 0.26 0.31 0.34 0.48 0.47 0.50 0.51 0.51 0.66 0.52 0.69 0.80 1.01 1.22 1.32 1.32 1.39 1.42 1.56 1.59 1.59 1.63 1.69 1.69 1.58 1.53 1.45 1.18 1.21 1.33 1.15 1.08 1.03 1.01 0.98 0.92 0.92 0.93 0.92 0.91 0.91 0.96 0.99 0.96 0.90
0.34 0.30 0.26 0.29 0.25 0.26 0.38 0.46 0.56 0.56 0.52 0.72 0.74 0.57 0.56 0.87 1.04 1.22 1.37 1.45 1.48 1.54 1.59 1.68 1.71 1.81 1.71 1.61 1.56 1.44 1.35 1.19 1.21 1.31 1.17 1.10 1.06 1.02 0.96 0.89 0.85 0.86 0.89 0.93 0.92 0.90 0.92 0.89 0.87
0.39 0.26 0.25 0.26 0.26 0.27 0.40 0.46 0.57 0.66 0.62 0.71 0.74 0.75 0.74 0.88 1.09 1.21 1.28 1.33 1.39 1.47 1.52 1.67 1.72 1.70 1.64 1.67 1.51 1.38 1.37 1.28 1.25 1.30 1.18 1.12 1.11 1.03 0.97 0.97 0.94 0.91 0.89 0.96 0.92 0.89 0.90 0.89 0.87
0.32 0.26 0.26 0.31 0.32 0.30 0.39 0.50 0.49 0.53 0.63 0.68 0.72 0.86 0.90 0.89 0.99 1.11 1.17 1.16 1.25 1.46 1.50 1.66 1.69 1.66 1.65 1.57 1.51 1.42 1.32 1.33 1.31 1.31 1.26 1.16 1.12 1.05 1.04 1.03 1.03 0.97 0.90 0.89 0.92 0.93 0.88 0.88 0.84
0.31 0.23 0.29 0.32 0.35 0.34 0.44 0.50 0.60 0.55 0.55 0.67 0.65 0.70 0.78 0.79 0.91 1.09 1.23 1.20 1.23 1.33 1.50 1.61 1.64 1.63 1.43 1.35 1.41 1.38 1.34 1.32 1.24 1.26 1.25 1.17 1.08 1.10 1.07 1.05 1.03 1.00 0.96 0.93 0.92 0.94 0.87 0.81 0.76
0.27 0.30 0.33 0.34 0.35 0.37 0.45 0.53 0.53 0.62 0.67 0.80 0.75 0.72 0.73 0.74 0.79 0.96 1.23 1.21 1.30 1.41 1.45 1.58 1.50 1.43 1.41 1.34 1.31 1.35 1.34 1.28 1.24 1.29 1.25 1.14 1.07 1.08 1.05 1.05 1.06 1.04 1.02 0.97 0.98 1.00 0.92 0.82 0.78
0.33 0.32 0.36 0.38 0.37 0.42 0.53 0.48 0.55 0.62 0.83 0.87 0.77 0.74 0.72 0.80 0.86 0.91 1.08 1.23 1.29 1.34 1.42 1.46 1.56 1.51 1.44 1.41 1.39 1.40 1.24 1.04 1.23 1.31 1.24 1.14 1.03 1.04 1.09 1.05 1.04 1.03 1.02 0.97 0.99 1.02 0.96 0.93 0.81
0.38 0.34 0.33 0.35 0.40 0.46 0.43 0.46 0.53 0.63 0.85 0.81 0.68 0.63 0.79 0.89 0.99 0.98 0.99 1.15 1.19 1.29 1.30 1.36 1.47 1.50 1.47 1.41 1.41 1.31 1.19 1.12 1.23 1.27 1.19 1.10 1.04 1.05 1.05 1.04 1.03 1.03 1.01 1.01 1.02 1.00 0.95 0.95 0.89
0.37 0.25 0.30 0.32 0.39 0.40 0.47 0.41 0.43 0.64 0.79 0.75 0.61 0.62 0.72 0.77 0.92 0.98 1.06 1.08 1.14 1.23 1.46 1.32 1.36 1.42 1.41 1.45 1.35 1.26 1.18 1.23 1.15 1.15 1.14 1.08 1.04 1.03 1.02 1.01 1.01 1.00 1.01 1.00 1.06 1.03 0.98 0.93 0.88
0.29 0.25 0.22 0.32 0.38 0.41 0.46 0.30 0.47 0.67 0.68 0.65 0.64 0.61 0.62 0.66 0.76 0.88 1.04 1.15 1.22 1.24 1.23 1.31 1.35 1.42 1.30 1.30 1.32 1.24 1.17 1.13 1.09 1.06 1.10 1.07 1.03 1.02 1.04 1.03 1.03 0.99 1.00 0.99 1.04 1.05 0.96 0.92 0.88
0.24 0.18 0.25 0.27 0.38 0.40 0.45 0.36 0.47 0.65 0.67 0.61 0.60 0.63 0.59 0.56 0.63 0.75 0.92 1.08 1.18 1.21 1.30 1.26 1.35 1.31 1.26 1.25 1.28 1.26 1.15 1.12 1.16 1.18 1.14 1.13 1.11 1.05 1.08 1.08 1.07 1.03 1.08 1.12 1.05 1.03 0.98 0.93 0.90
0.17 0.20 0.25 0.28 0.35 0.40 0.42 0.39 0.45 0.54 0.59 0.60 0.56 0.60 0.59 0.53 0.62 0.67 0.84 1.04 1.15 1.22 1.23 1.28 1.29 1.25 1.31 1.28 1.27 1.23 1.23 1.18 1.19 1.18 1.18 1.22 1.20 1.20 1.17 1.15 1.10 1.14 1.19 1.18 1.05 0.98 0.99 0.96 0.94
0.22 0.23 0.28 0.32 0.37 0.35 0.35 0.41 0.43 0.49 0.57 0.58 0.53 0.56 0.55 0.53 0.65 0.69 0.74 0.93 1.05 1.12 1.17 1.18 1.24 1.27 1.24 1.18 1.14 1.19 1.18 1.18 1.11 1.14 1.27 1.25 1.19 1.17 1.17 1.14 1.10 1.12 1.09 1.06 1.07 1.01 0.96 0.94 0.98
0.26 0.26 0.29 0.34 0.36 0.36 0.35 0.37 0.44 0.46 0.51 0.60 0.55 0.53 0.54 0.58 0.59 0.63 0.65 0.81 0.93 0.97 1.03 1.09 1.16 1.22 1.23 1.17 1.22 1.17 1.21 1.20 1.16 1.15 1.16 1.14 1.15 1.15 1.16 1.11 1.08 1.11 1.11 1.09 1.11 1.05 0.95 0.97 1.02
0.28 0.31 0.30 0.29 0.32 0.35 0.35 0.33 0.38 0.44 0.52 0.58 0.62 0.60 0.58 0.55 0.57 0.58 0.60 0.66 0.81 0.89 0.92 0.94 1.04 1.09 1.14 1.15 1.17 1.13 1.09 1.04 1.01 1.03 1.06 1.04 1.02 1.03 0.98 0.97 0.99 1.01 1.04 1.03 1.06 1.03 0.98 0.96 1.03
0.31 0.39 0.36 0.32 0.28 0.22 0.34 0.21 0.30 0.37 0.42 0.50 0.55 0.59 0.56 0.56 0.58 0.56 0.57 0.57 0.65 0.76 0.88 0.88 0.91 0.98 1.00 1.04 1.01 0.95 0.86 0.82 0.90 0.95 0.98 0.94 0.96 0.94 0.94 0.97 0.98 0.98 1.02 1.00 1.00 1.00 1.01 1.03 1.00
0.34 0.44 0.38 0.34 0.29 0.29 0.29 0.25 0.26 0.38 0.37 0.43 0.53 0.58 0.59 0.58 0.61 0.61 0.59 0.57 0.60 0.69 0.75 0.82 0.81 0.86 0.90 0.91 0.94 0.91 0.83 0.82 0.83 0.88 0.87 0.84 0.86 0.88 0.88 0.90 0.88 0.96 1.09 1.22 1.19 1.15 1.11 1.10 1.08
0.44 0.41 0.38 0.37 0.33 0.22 0.26 0.26 0.22 0.27 0.31 0.42 0.52 0.58 0.63 0.62 0.64 0.65 0.70 0.67 0.62 0.63 0.68 0.73 0.74 0.74 0.79 0.81 0.84 0.86 0.81 0.81 0.79 0.79 0.79 0.80 0.83 0.85 0.87 0.86 0.93 1.07 1.16 1.20 1.24 1.27 1.24 1.24 1.24
0.44 0.37 0.27 0.24 0.23 0.18 0.30 0.27 0.26 0.29 0.33 0.40 0.44 0.52 0.58 0.66 0.66 0.65 0.65 0.64 0.65 0.66 0.67 0.69 0.69 0.68 0.74 0.73 0.75 0.82 0.84 0.84 0.80 0.78 0.79 0.79 0.80 0.83 0.87 0.89 0.95 1.12 1.24 1.30 1.28 1.24 1.23 1.22 1.17
0.41 0.37 0.28 0.19 0.19 0.20 0.32 0.23 0.28 0.40 0.45 0.46 0.49 0.50 0.56 0.62 0.67 0.69 0.70 0.72 0.64 0.66 0.67 0.69 0.68 0.69 0.75 0.77 0.75 0.78 0.83 0.84 0.81 0.82 0.85 0.85 0.89 0.96 1.01 1.06 1.10 1.12 1.25 1.25 1.22 1.17 1.18 1.16 1.14
0.40 0.36 0.40 0.31 0.33 0.25 0.26 0.28 0.33 0.41 0.41 0.42 0.44 0.49 0.52 0.58 0.64 0.67 0.75 0.78 0.79 0.75 0.72 0.70 0.69 0.68 0.70 0.75 0.78 0.79 0.82 0.84 0.86 0.90 0.96 1.02 1.11 1.13 1.13 1.19 1.13 1.12 1.18 1.25 1.19 1.11 1.10 1.13 1.07
0.42 0.46 0.34 0.34 0.22 0.19 0.23 0.24 0.24 0.35 0.39 0.41 0.41 0.45 0.50 0.59 0.63 0.68 0.76 0.81 0.87 0.86 0.83 0.84 0.82 0.73 0.73 0.74 0.76 0.77 0.81 0.88 0.92 0.97 1.03 1.10 1.16 1.25 1.26 1.21 1.21 1.22 1.22 1.22 1.21 1.14 1.11 1.04 1.02
0.39 0.37 0.39 0.38 0.32 0.23 0.20 0.21 0.31 0.38 0.43 0.41 0.39 0.40 0.45 0.51 0.53 0.60 0.67 0.76 0.83 0.90 0.91 0.92 0.91 0.91 0.88 0.84 0.83 0.85 0.86 0.87 0.94 0.98 1.02 1.10 1.20 1.27 1.31 1.30 1.25 1.23 1.25 1.25 1.21 1.15 1.09 1.02 0.99
0.42 0.40 0.40 0.32 0.30 0.33 0.29 0.22 0.39 0.43 0.43 0.45 0.42 0.39 0.43 0.47 0.48 0.54 0.60 0.68 0.73 0.80 0.86 0.86 0.93 0.95 0.99 1.00 1.01 1.03 1.07 1.04 1.07 1.10 1.16 1.20 1.19 1.23 1.29 1.32 1.24 1.16 1.24 1.24 1.17 1.08 1.06 0.99 0.93
Wind_Speed
14 14 12 11 8 6 10 13 14 17 15 14 13 12 11 11 12 14 13 18 20 21 23 24 23 20 18 20 24 24 23 21 20 19 18 16 15 15 14 13 13 12 11 10 9 9 8 7 6
13 12 11 7 6 8 11 13 14 15 14 11 9 9 9 10 10 11 14 16 19 20 21 23 24 21 20 20 26 26 25 23 22 21 19 18 17 15 14 14 13 12 11 10 9 8 7 7 6
11 10 7 6 6 8 11 13 16 15 11 10 9 9 9 10 10 11 11 17 19 20 20 24 26 25 24 25 27 26 27 25 24 22 20 19 17 16 15 15 14 12 11 11 9 8 7 7 7
10 10 7 6 9 12 12 16 13 12 10 10 11 12 12 12 11 12 15 16 21 21 24 25 26 24 21 23 25 26 31 28 25 24 22 20 18 17 16 15 14 13 12 10 8 8 8 8 7
9 8 6 8 10 12 12 10 8 8 10 11 12 12 13 14 15 15 16 18 23 24 25 25 24 23 22 22 27 28 33 29 27 25 24 21 20 18 17 15 14 13 12 9 8 8 10 9 8
9 7 6 8 10 11 9 8 7 9 10 11 11 12 13 14 15 16 17 19 21 24 25 25 25 24 22 23 27 32 32 32 28 26 25 23 21 19 17 15 15 13 11 9 8 9 10 9 8
6 6 7 8 9 11 10 6 9 10 11 13 14 15 14 14 15 16 16 16 19 21 22 25 27 26 23 21 20 34 29 32 32 27 26 24 22 19 17 15 14 13 11 10 9 9 9 9 9
6 6 6 8 7 11 10 8 9 11 13 14 13 13 13 14 14 14 14 14 19 21 23 24 24 29 27 20 21 20 24 30 33 29 27 25 22 20 17 15 14 13 12 10 9 9 9 10 9
6 6 7 9 9 11 13 9 12 13 12 13 15 15 12 12 12 11 12 11 13 16 19 23 25 26 26 24 22 22 22 28 31 30 28 25 23 20 18 16 14 13 12 10 9 8 10 10 9
6 6 9 10 13 16 12 11 10 11 12 15 15 13 11 11 10 9 9 7 7 13 20 24 23 21 19 20 23 22 23 28 33 31 28 25 23 20 18 16 15 13 11 11 9 8 10 10 9
8 10 12 16 16 13 10 9 10 11 13 14 11 10 10 9 9 6 7 7 2 11 16 20 20 19 16 15 22 24 21 25 32 33 29 25 23 21 19 17 16 14 11 10 9 10 10 10 10
9 12 13 14 14 8 9 8 10 10 11 10 10 10 10 9 8 6 8 9 9 11 13 19 19 16 16 17 22 23 22 24 28 30 29 26 24 22 18 18 17 14 13 10 10 10 12 11 10
12 12 13 14 10 8 7 10 10 9 10 9 10 10 10 11 9 7 9 10 11 13 14 15 18 18 17 18 19 21 23 24 26 28 27 25 25 24 19 18 17 14 13 12 11 11 12 12 11
12 14 16 12 10 9 8 10 10 8 8 8 8 8 10 10 6 6 8 11 12 14 16 17 18 17 20 18 18 21 22 25 26 27 26 25 25 24 21 19 17 15 14 13 13 12 12 12 12
13 16 15 12 11 11 9 11 11 7 7 6 6 7 9 9 5 1 7 11 14 16 19 17 19 19 20 21 21 21 22 24 25 27 26 25 25 24 21 19 18 16 15 15 13 12 12 12 12
12 11 7 6 5 9 8 13 7 6 4 5 5 5 7 6 5 2 3 9 14 16 18 17 19 19 20 21 24 21 23 24 26 25 26 25 25 23 22 21 18 18 16 16 14 13 13 12 12
10 10 7 9 9 7 7 11 7 6 5 5 5 4 5 5 4 4 2 6 13 17 18 17 20 20 20 22 24 24 23 24 26 26 26 25 24 24 23 21 21 19 18 16 15 14 13 13 13
10 10 9 10 8 8 9 14 8 7 7 7 5 4 4 3 3 4 4 2 9 14 17 19 21 19 22 22 24 23 23 25 27 27 24 25 24 23 22 23 21 20 18 17 16 15 15 14 14
11 10 11 12 12 11 12 11 11 7 6 6 6 6 5 4 2 3 3 4 6 10 15 17 20 22 24 24 24 26 25 25 27 29 25 25 25 22 22 22 21 19 17 17 17 17 17 16 15
14 13 14 13 14 8 9 11 9 8 8 8 7 6 5 3 2 0 2 3 5 8 10 12 16 20 23 25 25 24 26 26 26 27 27 25 24 23 23 22 20 19 18 18 19 19 18 19 18
16 14 14 12 13 12 9 11 10 10 8 7 7 6 6 6 5 3 3 4 6 8 10 11 13 15 18 21 23 23 23 23 24 23 24 24 24 23 23 21 20 20 20 21 21 21 22 21 22
16 16 16 13 11 10 8 10 10 10 11 10 10 9 7 7 6 5 5 6 7 8 10 11 13 15 16 19 21 21 21 22 22 22 24 24 24 24 24 22 22 22 22 23 23 24 24 24 24
16 13 15 14 12 9 9 7 11 8 11 13 12 12 10 8 8 7 7 7 8 9 10 11 12 14 16 17 19 19 19 20 21 21 22 24 24 24 23 23 23 23 23 24 24 25 26 27 27
17 14 12 10 9 11 12 9 11 13 13 12 11 15 14 11 11 9 8 9 10 11 12 12 13 14 16 17 18 18 19 20 20 21 21 22 22 22 23 22 22 22 23 25 28 28 27 28 29
16 12 11 11 11 12 9 8 11 10 13 14 13 14 15 14 13 12 11 11 12 13 13 14 14 15 16 17 18 19 20 21 21 21 21 22 21 22 23 23 24 24 23 23 23 29 27 27 26
18 17 14 12 12 13 11 10 8 7 11 13 13 15 14 15 15 15 15 14 14 15 16 16 16 16 17 18 18 19 19 20 22 21 21 22 23 23 23 23 24 23 23 21 19 20 24 25 26
19 18 17 13 13 11 14 14 14 11 9 9 11 11 14 16 16 17 16 17 16 16 17 19 19 19 19 20 20 21 21 22 22 23 22 23 24 24 25 26 25 25 25 25 23 22 24 26 27
23 17 14 15 13 14 13 13 12 11 11 11 11 11 14 16 17 18 18 19 19 19 19 20 21 22 21 22 23 24 24 25 26 26 26 26 26 27 28 27 28 27 27 26 26 25 25 26 26
21 21 19 16 16 15 13 15 15 12 12 12 12 12 13 14 15 16 17 18 21 21 21 21 22 23 24 25 26 25 29 30 30 30 31 31 30 30 31 26 27 26 26 27 27 27 27 27 27
22 24 23 20 18 16 16 19 13 14 12 13 14 13 12 13 14 15 15 16 19 22 23 23 24 25 26 27 27 27 25 28 29 32 31 31 31 34 28 28 29 26 26 27 28 28 28 28 28
Wind_Direction
309 310 311 312 314 314 302 304 307 305 301 295 295 287 271 267 261 249 238 226 221 217 213 212 211 206 214 211 206 202 201 198 200 195 192 189 183 178 174 171 169 167 166 163 158 153 148 140 118
311 312 314 310 318 312 302 305 304 306 302 293 298 292 282 266 264 249 232 222 216 213 216 212 210 214 228 222 209 205 204 203 197 194 191 185 181 178 179 174 172 170 166 167 160 156 156 156 140
312 315 316 314 315 295 297 305 309 311 308 300 296 300 284 265 264 249 242 227 221 216 221 219 224 237 243 214 217 208 203 199 192 192 187 184 181 178 174 172 170 171 168 159 157 156 156 150 145
309 312 312 309 296 303 299 304 306 313 299 311 296 291 283 275 265 257 249 239 228 234 233 233 233 236 216 207 208 204 198 190 192 189 186 184 180 175 172 172 170 165 162 163 162 166 162 155 149
312 310 307 303 304 309 311 310 310 309 306 305 299 287 283 272 273 265 255 247 237 238 236 230 227 217 211 216 213 201 192 192 187 189 184 182 178 176 175 172 169 169 169 167 166 167 163 158 155
306 298 302 297 308 316 315 312 320 321 316 312 311 304 289 276 273 267 259 251 244 236 231 224 217 215 217 223 205 196 196 187 186 182 180 179 177 176 175 174 172 173 172 169 164 161 162 161 154
295 295 278 289 305 315 314 308 315 310 309 307 302 300 292 281 280 267 255 249 239 232 228 223 221 215 209 198 191 186 190 194 187 183 180 179 179 177 176 175 174 173 174 170 165 163 170 170 161
290 297 285 285 303 308 310 301 320 311 310 312 309 306 301 288 285 270 252 253 242 237 232 220 217 197 195 194 184 180 186 185 183 183 180 179 178 178 177 176 176 177 178 178 173 168 171 173 168
280 292 280 291 300 299 312 293 308 319 319 317 312 310 307 306 294 269 259 256 244 236 216 204 191 190 192 197 200 189 187 185 187 181 180 180 181 181 180 180 180 176 180 180 174 174 171 171 176
275 271 279 287 295 295 297 290 300 314 321 319 313 313 305 309 301 270 248 248 269 216 205 190 182 182 190 201 198 199 194 190 186 186 183 184 184 183 183 183 181 181 180 182 192 188 178 186 189
267 268 289 292 297 282 281 295 305 316 320 319 319 316 312 314 309 267 228 221 217 158 163 172 177 185 181 183 185 175 177 179 187 184 184 184 183 185 187 186 185 187 189 192 200 194 191 190 190
276 279 288 296 303 277 275 292 307 314 328 330 320 322 319 312 307 261 226 219 206 189 180 183 185 178 174 169 170 176 177 179 179 187 187 189 189 185 185 194 195 194 196 208 201 200 197 195 194
272 284 290 296 289 274 277 288 304 314 319 321 330 335 329 315 292 265 230 215 204 192 189 189 190 190 184 181 185 184 185 184 185 186 188 191 189 192 194 194 194 202 205 206 203 202 199 201 204
269 284 287 289 273 271 277 288 303 298 314 315 330 340 347 344 311 248 223 208 201 200 202 197 195 200 197 193 190 186 186 186 186 188 189 190 194 193 198 201 205 211 208 206 206 208 208 210 210
275 289 283 273 265 271 281 288 284 291 296 305 320 334 351 5 13 217 213 212 211 210 195 202 207 205 203 203 195 188 186 188 189 189 191 194 196 199 203 205 209 210 209 209 211 212 215 215 216
282 282 278 277 259 277 274 281 296 283 279 287 305 328 345 359 14 24 223 217 213 205 209 207 207 203 202 199 199 193 188 192 191 193 195 197 200 204 207 211 217 208 211 211 215 218 219 220 222
270 258 263 286 274 277 264 277 289 266 268 284 286 297 332 356 12 9 330 242 217 212 208 209 203 204 201 199 197 199 199 198 194 194 198 202 206 209 213 214 209 213 214 218 221 221 223 227 228
248 242 260 271 291 288 268 270 286 266 265 273 264 270 285 321 347 27 27 18 201 204 210 209 205 207 202 197 199 197 200 199 201 200 204 207 208 209 212 211 209 213 219 223 226 228 228 232 236
247 254 263 271 280 282 259 263 274 264 266 262 257 252 255 270 320 23 49 73 137 183 200 204 205 208 206 206 205 204 204 203 205 207 207 208 210 213 209 207 208 214 223 227 228 232 234 237 240
244 251 262 277 282 259 266 267 270 259 268 250 235 239 237 241 237 90 99 123 137 155 167 181 194 203 206 206 204 204 207 205 206 209 211 209 209 205 201 205 215 223 230 233 236 238 241 243 247
240 242 257 259 286 271 265 274 269 267 257 242 240 244 241 226 222 204 173 156 149 161 163 164 171 179 185 189 193 194 196 197 198 199 201 202 203 206 209 217 226 235 239 242 243 244 245 250 253
243 236 253 264 270 266 259 267 266 260 254 243 239 231 231 223 214 208 190 178 169 163 166 168 169 171 174 176 179 186 189 193 197 202 202 203 209 214 219 228 236 243 245 247 248 250 251 253 256
233 239 251 256 257 263 269 268 260 256 258 246 240 228 229 222 211 210 205 192 188 179 172 169 173 175 177 179 185 189 194 198 201 201 206 211 216 220 227 235 243 245 248 251 253 253 255 257 259
233 251 253 255 253 259 261 258 269 244 243 247 243 231 230 226 219 215 213 206 198 194 192 189 186 188 189 189 191 195 197 199 202 205 210 214 220 227 233 240 244 247 254 257 256 256 257 259 262
228 234 253 254 254 251 250 261 263 251 238 240 233 226 224 223 222 218 212 208 205 204 203 202 201 201 199 200 203 204 206 208 209 214 218 221 227 234 240 245 248 252 255 259 266 252 257 257 257
225 225 230 238 245 257 261 253 259 235 256 244 233 227 222 220 224 222 220 217 213 214 214 213 212 213 212 211 211 212 214 216 219 223 227 233 237 242 246 248 249 252 252 255 261 258 254 259 264
231 231 238 237 257 256 255 263 270 268 255 237 222 215 222 223 226 227 226 224 223 223 223 221 221 222 223 222 223 224 225 227 229 233 238 240 243 247 249 250 252 254 252 254 259 261 261 264 268
226 228 236 244 237 251 254 255 249 262 245 233 228 226 232 235 230 230 231 231 230 231 230 229 229 230 230 231 232 234 235 237 239 241 243 245 249 251 253 253 254 254 253 254 257 262 265 268 270
227 231 233 241 237 240 249 254 243 250 243 235 234 243 240 233 223 228 236 235 234 235 234 234 235 236 236 238 238 242 245 245 245 246 249 250 254 254 253 254 250 256 254 255 256 261 265 268 269
227 230 229 232 241 246 243 249 247 250 256 240 243 255 249 228 230 231 236 238 237 238 239 239 240 240 241 242 240 243 255 242 250 249 249 252 262 251 256 253 253 256 256 256 258 261 266 267 268